Terug naar catalogus

DELTA 1 DEB

ActiefSSO
NORAD 21602·DEBRIS·🇺🇸 United States

Gelanceerd Jun 12, 1975 vanaf Vandenberg Space Force Base

Loading…

Volgende Passages (komende 24 uur)

TLE

VersSource: Space-Track

Epoch: Sep 14, 2026, 00:42 UTC

1 21602U 75052HW  26257.02969975  .00001520  00000-0  20616-2 0  9994
2 21602  99.6379 286.8559 0073219 301.3981  87.4610 13.59973485715278

Volg DELTA 1 DEB in realtime met AllMySat

Download on the App Store